Powrót do katalogu

COSMOS 1579 COOLANT

LostSSO
NORAD 26648·DEBRIS·🇷🇺 Russia

Wystrzelony Jun 29, 1984 z Baikonur Cosmodrome

Loading…

Następne Przeloty (najbliższe 24 godziny)

TLE

NieaktualneSource: Space-Track

Epoka: Feb 4, 2020, 07:47 UTC

1 26648U 84069V   20035.32496802 -.00001027  00000-0 -50136-3 0  9997
2 26648  98.9332 222.9650 0083892 274.3001 209.8657 14.13795381982744

Śledź COSMOS 1579 COOLANT w czasie rzeczywistym z AllMySat

Download on the App Store